Rbgn^[z[y[W
メイン
   新天体発見情報
     Comet P/2018 VN2 = P/2010 W10 = P/2026 M2 (Leonard)
投稿するにはまず登録を

スレッド表示 | 古いものから 前のトピック | 次のトピック | 下へ
投稿者 スレッド
佐藤裕久
投稿日時: 2026-7-2 23:09
モデレータ
登録日: 2005-6-12
居住地: 日本
投稿: 2697
オンライン
Comet P/2018 VN2 = P/2010 W10 = P/2026 M2 (Leonard)

Jean-François Soulier(Maisoncelles, フランス)は、6月22日、0.25-m f/3.5 反射望遠鏡で得た
CCD画像から、P/2018 VN2(CBET 4573参照)を検出したようだと報告しているが、天体の外観に
ついてはコメントしていない。 確認観測データが中央局および小惑星センターに送付されており、
その中にはM. Masek(チェコ科学アカデミー物理学研究所)による天体測位データも含まれており、
同氏がカナリア諸島 La Palmaにある将来建設予定のCherenkov望遠鏡アレイ (CTA)の設置予定地に
設置した、25-cm Schmidt-Cassegrain 反射望遠鏡で得た、フィルターなしCCD画像では、集光した
0'.2のコマが見え、p.a. 257°に0'.2 の尾があるとのこと。
佐藤英貴氏(東京都文京区)の報告によると、オーストラリア ニューサウスウェールズ州 Siding 
Springにある0.51-m f/6.8 アストログラフの遠隔操作で得たCCD画像では、強く集光した10"のコマ
が見え、p.a. 260°に15"の尾があるとのこと。6".5の円形範囲で測定した光度はは19.0等であった。
R. Weryk (西オンタリオ大学,物理および天文学科)は、2010年11月27.5日と12月5.5日UT、Haleakala
にあるPan-STARRS1の1.8-m Ritchey-Chretien 反射望遠鏡で得たこの彗星の新たに確認された観測
データの位置測定結果を報告した。
また、2017年6月23.4日(23.2〜23.9等)すべての画像において、ここの彗星はおそらく恒星と見なさ
れていた。2010年の出現については、MPEC 2026-M133で検出が発表された際、P/2010 W10という
符号が割り当てられた。
NK 4475 (and the ICQ's 2026 Comet Handbook)の中野主一氏の予報に対し、Delta(T)は、-0.17 
dayであった。
MPEC 2021-L04のM. Rudenkoの予報に対する修正値は、Delta(T) = -0.24 dayであった。
彗星年表 2023の佐藤裕久の参考軌道に対する修正値は、Delta(T) = -0.10 dayであった。

彗星機能の報告は次のとおり、

OC   Date        Reporter            Coma    Tail   PA   Comet     Date
                                                        (T/P)   Reported
950  2026-06-24  M. Masek           12"       12"  257    T   2026-06-24.97

検出位置は次のとおり、

     2026 UT             R.A. (2000) Decl.       Mag.   Observer
     June 22.04211    0 25 11.87   +20 18 35.3   19.0   Soulier
          22.06886    0 25 14.56   +20 18 54.1   18.9     "
          22.09561    0 25 17.34   +20 19 13.3   19.1     "
          24.12229    0 28 44.13   +20 42 55.7   18.6   Masek
          24.14341    0 28 46.29   +20 43 11.1   18.5     " 

2010年の検出位置は次のとおり、

     2010 UT             R.A. (2000) Decl.       Mag.
     Nov. 27.52255    5 50 29.77   + 8 08 10.2   22.1
          27.53447    5 50 29.18   + 8 08 05.4   21.6
     Dec.  5.45734    5 44 02.91   + 7 15 40.7   21.1
           5.47362    5 44 02.05   + 7 15 35.1   21.3 

MPCの連結軌道要素と位置推算表は次のとおり、

Orbital elements:
    P/2018 VN2 (Leonard)                                                        
Epoch 2026 Aug. 28.0 TT = JDT 2461280.5                                         
T 2026 Aug. 15.69589 TT                                 Rudenko                 
q   2.1196004            (2000.0)            P               Q                  
n   0.12049829     Peri.  138.93582     +0.97166990     -0.06595674             
a   4.0595897      Node   226.42632     +0.02479375     +0.98341829             
e   0.4778782      Incl.   18.25571     +0.23503803     +0.16893247             
P   8.18                                                                        
From 142 observations 2018 July 2-2026 June 27, mean residual 0".8.             
                                                                                
    P/2018 VN2 (Leonard)                                                        
Epoch 2018 June 11.0 TT = JDT 2458280.5                                         
T 2018 June 5.38312 TT                                  Rudenko                 
q   2.1226670            (2000.0)            P               Q                  
n   0.12036346     Peri.  138.77780     +0.97164236     -0.06539636             
a   4.0626208      Node   226.54890     +0.02402012     +0.98332100             
e   0.4775129      Incl.   18.24063     +0.23523212     +0.16971483             
P   8.19                                                                        
From 142 observations 2018 July 2-2026 June 27, mean residual 0".8.             
                                                                                
Ephemeris:
Date    TT    R. A. (2000) Decl.     Delta      r    Elong.  Phase   m1
2026 05 31    23 46 39.1 +15 42 45   2.4019  2.2090    66.8    25.0  20.3
...
2026 06 15    00 13 04.2 +18 53 41   2.2356  2.1781    73.6    26.6  20.1
...
2026 06 23    00 26 49.4 +20 29 52   2.1473  2.1642    77.3    27.3  20.0
...
2026 06 29    00 36 56.0 +21 38 33   2.0816  2.1549    80.2    27.7  19.9
2026 06 30    00 38 35.9 +21 49 41   2.0707  2.1535    80.7    27.8  19.9
2026 07 01    00 40 15.5 +22 00 42   2.0598  2.1521    81.1    27.8  19.9
...
2026 07 07    00 50 04.3 +23 04 42   1.9947  2.1442    84.1    28.1  19.8
...
2026 07 15    01 02 42.6 +24 23 33   1.9087  2.1353    88.3    28.4  19.7
...
2026 07 30    01 24 32.5 +26 27 05   1.7513  2.1240    96.7    28.3  19.5

中野主一氏(中央局)の軌道要素は次のとおり、
from 148 observations spanning 2010 Nov. 27-2026 June 24 (mean residual 0".5) 
これに対応する非重力パラメータは、A1 = +0.50 +/-0.32、A2 = +0.0373 +/-0.0034 である。
1970年から2060年の期間において、主要な惑星との接近は過去にも現在にも見られない。

                    Epoch = 2002 Feb. 15.0 TT
     T = 2002 Feb. 19.53210 TT        Peri. = 138.24334
     e = 0.4835692                    Node  = 227.14448 2000.0
     q = 2.0791555 AU                 Incl. =  18.23119
       a =  4.0260099 AU   n = 0.12200899   P =   8.08 years

                    Epoch = 2010 Mar. 25.0 TT
     T = 2010 Apr.  3.85907 TT        Peri. = 138.80301
     e = 0.4788856                    Node  = 226.52713 2000.0
     q = 2.1148054 AU                 Incl. =  18.24249
       a =  4.0582361 AU   n = 0.12055858   P =   8.18 years

                    Epoch = 2018 June 11.0 TT
     T = 2018 June  5.37915 TT        Peri. = 138.77536
     e = 0.4775214                    Node  = 226.54876 2000.0
     q = 2.1226219 AU                 Incl. =  18.24045
       a =  4.0626011 AU   n = 0.12036433   P =   8.19 years

                    Epoch = 2026 Aug. 28.0 TT
     T = 2026 Aug. 15.68620 TT        Peri. = 138.93238
     e = 0.4778879                    Node  = 226.42618 2000.0
     q = 2.1195567 AU                 Incl. =  18.25554
       a =  4.0595818 AU   n = 0.12049863   P =   8.18 years

                    Epoch = 2034 Oct.  5.0 TT
     T = 2034 Oct. 17.93095 TT        Peri. = 138.96138
     e = 0.4774348                    Node  = 226.34701 2000.0
     q = 2.1244627 AU                 Incl. =  18.26478
       a =  4.0654499 AU   n = 0.12023783   P =   8.20 years

                    Epoch = 2042 Dec. 22.0 TT
     T = 2042 Dec. 16.66832 TT        Peri. = 139.22780
     e = 0.4796644                    Node  = 226.23155 2000.0
     q = 2.1046742 AU                 Incl. =  18.35822
       a =  4.0448401 AU   n = 0.12115798   P =   8.14 years

上記の軌道要素に基づき、Daniel W. E. Greenが位置推算表を計算した。
光度算出に測光のべき乗則パラメータ H = 14.0 および 2.5n = 10 を使用している。

Date    TT    R. A. (2000) Decl.     Delta      r    Elong.  Phase   Mag.
2026 06 09    00 02.58   +17 38.7    2.302    2.190    70.8    26.0  19.2
2026 06 19    00 19.98   +19 42.4    2.191    2.171    75.4    26.9  19.1
2026 06 29    00 36.93   +21 38.6    2.082    2.155    80.2    27.7  18.9
2026 07 09    00 53.29   +23 25.2    1.973    2.142    85.1    28.2  18.8
2026 07 19    01 08.80   +24 59.8    1.866    2.132    90.4    28.5  18.6
2026 07 29    01 23.18   +26 20.0    1.762    2.124    96.1    28.4  18.5
2026 08 08    01 36.11   +27 23.1    1.660    2.120   102.2    27.9  18.4
2026 08 18    01 47.15   +28 06.1    1.563    2.120   108.9    26.9  18.2
2026 08 28    01 55.91   +28 25.7    1.472    2.122   116.3    25.3  18.1
2026 09 07    02 02.00   +28 18.3    1.389    2.127   124.4    23.0  18.0
2026 09 17    02 05.15   +27 40.3    1.317    2.136   133.4    20.0  17.9
2026 09 27    02 05.37   +26 29.0    1.259    2.147   143.2    16.3  17.8
2026 10 07    02 03.05   +24 44.4    1.220    2.162   153.7    11.8  17.8
2026 10 17    01 58.94   +22 30.7    1.203    2.179   164.4     7.1  17.8
2026 10 27    01 54.20   +19 58.2    1.210    2.199   172.2     3.5  17.8
2026 11 06    01 49.97   +17 20.7    1.244    2.222   167.2     5.7  17.9
2026 11 16    01 47.25   +14 52.9    1.304    2.247   156.7    10.0  18.1
2026 11 26    01 46.68   +12 46.3    1.389    2.274   145.9    14.1  18.3
2026 12 06    01 48.50   +11 07.1    1.494    2.304   135.7    17.4  18.5
2026 12 16    01 52.67   +09 56.5    1.617    2.336   126.0    19.9  18.7
2026 12 26    01 59.03   +09 12.6    1.754    2.369   117.0    21.7  19.0 

(MPEC 2026-M133、CBET 5710、oaa-comet 9282)

スレッド表示 | 古いものから 前のトピック | 次のトピック | トップ

投稿するにはまず登録を
 
© 1999 Tsutomu Seki.